This demonstration page uses our WeatherBlox Daily Observations layout. Learn more.

Left ArrowRight Arrow

38.20091, -84.87328

Hourly Observations for July 28, 2021

Temp ( °F °C ) Dew Point ( °F °C ) Humidity (%) Winds ( mph kmh ) Pressure ( in mb ) Visibility ( mi km ) Precip ( " mm )
12:53 am 00:53 Clear 71 21.7 68 20 90 90 Calm 30.02 1017 10 16 0.00 0.00
1:53 am 01:53 Clear 70 21.1 67 19.4 90 90 NNW 3 6 30.03 1017 10 16 0.00 0.00
2:53 am 02:53 Clear 69 20.6 66 18.9 90 90 Calm 30.03 1017 7 11 0.00 0.00
3:53 am 03:53 Clear 67 19.4 65 18.3 93 93 NNW 3 6 30.04 1017 9 14 0.00 0.00
4:53 am 04:53 Clear 67 19.4 65 18.3 93 93 Calm 30.04 1017 8 13 0.00 0.00
5:53 am 05:53 Clear 65 18.3 63 17.2 93 93 Calm 30.04 1017 9 14 0.00 0.00
6:53 am 06:53 Sunny 64 17.8 62 16.7 93 93 Calm 30.06 1018 9 14 0.00 0.00
7:53 am 07:53 Sunny 67 19.4 65 18.3 93 93 Calm 30.07 1018 7 11 0.00 0.00
8:53 am 08:53 Sunny 74 23.3 69 20.6 85 85 Calm 30.07 1018 9 14 0.00 0.00
9:53 am 09:53 Sunny 79 26.1 68 20 69 69 NNW 5 7 30.09 1019 10 16 0.00 0.00
10:53 am 10:53 Sunny 83 28.3 68 20 61 61 Calm 30.06 1018 10 16 0.00 0.00
11:53 am 11:53 Sunny 87 30.6 66 18.9 50 50 N 6 9 30.05 1018 10 16 0.00 0.00
12:53 pm 12:53 Sunny 89 31.7 68 20 50 50 N 7 11 30.07 1018 10 16 0.00 0.00
1:53 pm 13:53 Mostly Sunny 88 31.1 68 20 52 52 W 7 11 30.06 1018 10 16 0.00 0.00
2:53 pm 14:53 Sunny 89 31.7 68 20 50 50 W 6 9 30.04 1017 10 16 0.00 0.00
3:53 pm 15:53 Mostly Sunny 89 31.7 70 21.1 53 53 VRB 3 6 30.02 1017 10 16 0.00 0.00
4:53 pm 16:53 Sunny 88 31.1 70 21.1 55 55 WNW 6 9 30.01 1016 10 16 0.00 0.00
5:53 pm 17:53 Sunny 88 31.1 68 20 52 52 WNW 5 7 30.01 1016 10 16 0.00 0.00
6:53 pm 18:53 Sunny 88 31.1 68 20 52 52 NW 5 7 30.01 1016 10 16 0.00 0.00
7:53 pm 19:53 Sunny 86 30 69 20.6 57 57 NW 3 6 30.01 1016 10 16 0.00 0.00
8:53 pm 20:53 Clear 79 26.1 72 22.2 79 79 Calm 30.00 1016 10 16 0.00 0.00
9:53 pm 21:53 Clear 76 24.4 71 21.7 85 85 Calm 30.00 1016 10 16 0.00 0.00
10:53 pm 22:53 Clear 74 23.3 71 21.7 91 91 Calm 30.01 1016 9 14 0.00 0.00
11:53 pm 23:53 Clear 73 22.8 70 21.1 90 90 Calm 30.01 1016 10 16 0.00 0.00

Powered by AerisWeather